Location: Andershausen
(51.8462°N, 9.8595°E)
Time: 09:59:26
(UTC+00:00)

Okean 1 Rocket - Pass Details

Date: 18 November 2025
Orbit: 599 x 628 km, 82.5° (Epoch: 11 December)

Event Time Altitude Azimuth Distance (km) Brightness Sun altitude
Rises 18:01:24 0° 192° (SSW) 2,889 6.7 -23.7°
Reaches altitude 10° 18:03:38 10° 193° (SSW) 1,983 5.8 -24.0°
Maximum altitude 18:08:02 80° 281° (W) 633 3.0 -24.7°
Enters shadow 18:08:25 71° 339° (NNW) 655 3.1 -24.7°
